This demonstration page uses our WeatherBlox Daily Observations layout. Learn more.

Left ArrowRight Arrow

Hourly Observations for May 19, 2020

Temp ( °F °C ) Dew Point ( °F °C ) Humidity (%) Winds ( mph kmh ) Pressure ( in mb ) Visibility ( mi km ) Precip ( " mm )
12:53 am 00:53 Clear 83 28.3 57 13.9 41 41 SSE 16 26 29.69 1005 10 16 0.00 0.00
1:53 am 01:53 Clear 80 26.7 57 13.9 45 45 SSE 12 19 29.68 1005 10 16 0.00 0.00
2:53 am 02:53 Clear 77 25 58 14.4 52 52 SSE 12 19 29.67 1005 10 16 0.00 0.00
3:53 am 03:53 Clear 75 23.9 58 14.4 55 55 SE 10 17 29.66 1005 10 16 0.00 0.00
4:53 am 04:53 Clear 73 22.8 57 13.9 57 57 SE 7 11 29.67 1005 10 16 0.00 0.00
5:53 am 05:53 Clear 72 22.2 57 13.9 59 59 SE 9 15 29.67 1005 10 16 0.00 0.00
6:53 am 06:53 Sunny 71 21.7 58 14.4 63 63 SE 7 11 29.68 1005 10 16 0.00 0.00
7:53 am 07:53 Sunny 73 22.8 58 14.4 59 59 SE 8 13 29.69 1005 10 16 0.00 0.00
8:53 am 08:53 Sunny 78 25.6 58 14.4 50 50 SE 7 11 29.69 1006 10 16 0.00 0.00
9:07 am 09:07 Mostly Sunny 78 25.6 59 15 52 52 SSE 6 9 29.69 1005 10 16 0.00 0.00
9:53 am 09:53 Sunny 85 29.4 57 13.9 39 39 SSE 7 11 29.69 1006 10 16 0.00 0.00
10:53 am 10:53 Sunny 93 33.9 51 10.6 24 24 SW 9 15 29.69 1005 10 16 0.00 0.00
11:53 am 11:53 Sunny 96 35.6 49 9.4 20 20 SSW 8 13 29.67 1005 10 16 0.00 0.00
12:53 pm 12:53 Sunny 100 37.8 46 7.8 16 16 S 12 19 29.65 1004 10 16 0.00 0.00
1:53 pm 13:53 Sunny 102 38.9 41 5 12 12 SW 8 13 29.63 1003 10 16 0.00 0.00
2:53 pm 14:53 Sunny 103 39.4 41 5 12 12 SW 12 19 29.60 1002 10 16 0.00 0.00
3:48 pm 15:48 Sunny with Nearby Thunderstorms 97 36 41 5 14 14 VRB 7 11 29.52 1000 10 16 0.00 0.00
3:53 pm 15:53 Sunny with Nearby Thunderstorms 96 35.6 43 6.1 16 16 SW 21 33 29.63 1003 10 16 0.00 0.00
4:10 pm 16:10 Sunny with Nearby Thunderstorms 93 33.9 46 7.8 20 20 WSW 13 20 29.55 1001 10 16 0.00 0.00
4:43 pm 16:43 Mostly Cloudy with Heavy Rain 87 30.6 49 9.4 27 27 WSW 17 28 29.61 1003 3 5 0.02 0.51
4:53 pm 16:53 Mostly Cloudy with Light Rain 89 31.7 48 8.9 24 24 Calm 29.68 1005 9 14 0.02 0.51
5:53 pm 17:53 Sunny 90 32.2 47 8.3 23 23 W 7 11 29.67 1005 10 16 0.00 0.00
6:53 pm 18:53 Partly Cloudy 92 33.3 42 5.6 18 18 undefined N/A 29.64 1004 8 13 0.00 0.00
7:53 pm 19:53 Sunny 91 32.8 42 5.6 18 18 S 24 39 29.62 1003 10 16 0.00 0.00
8:53 pm 20:53 Clear 89 31.7 42 5.6 19 19 S 18 30 29.62 1003 10 16 0.00 0.00
9:53 pm 21:53 Clear 89 31.7 43 6.1 20 20 SSE 20 31 29.61 1003 10 16 0.00 0.00
10:53 pm 22:53 Clear 83 28.3 44 6.7 25 25 S 5 7 29.61 1003 10 16 0.00 0.00
11:53 pm 23:53 Clear 80 26.7 46 7.8 30 30 WSW 7 11 29.65 1004 10 16 0.00 0.00

Powered by AerisWeather